Weather History for Aitkin, MN

Change the Weather History Date:

Friday, March 29, 2013

  Actual Average Record
Temperature  
Mean Temperature 36 °F -  
Max Temperature 46 °F 44 °F 74 °F (1968)
Min Temperature 26 °F 24 °F -10 °F (1969)
Degree Days  
Heating Degree Days 29    
Moisture  
Dew Point 25 °F    
Average Humidity 61    
Maximum Humidity 74    
Minimum Humidity 50    
Precipitation  
Precipitation 0.00 in - - ()
Sea Level Pressure  
Sea Level Pressure 30.15 in    
Wind  
Wind Speed 4 mph (SSE)    
Max Wind Speed 13 mph    
Max Gust Speed 17 mph    
Visibility 10 miles    
Events      
Averages and records for this station are not official NWS values.
T = Trace of Precipitation, MM = Missing Value Source: NWS Daily Summary

Daily Weather History Graph

Daily Weather History Graph

Search for Another Location

Airport:

Trip Planner

Search our weather history database for the weather conditions in past years. The results will help you decide how hot, cold, wet, or windy it might be!

Date:

Astronomy

Mar. 29, 2013 Rise Set
Actual Time 6:59 AM CDT 7:40 PM CDT
Civil Twilight 6:29 AM CDT 8:10 PM CDT
Nautical Twilight 5:53 AM CDT 8:46 PM CDT
Astronomical Twilight 5:15 AM CDT 9:24 PM CDT
Moon 10:53 PM CDT (3/29) 7:58 AM CDT (3/29)
Length of Visible Light 13h 41m
Length of Day
12h 40m
Waning Gibbous, 93% of the Moon is Illuminated
Mar 29
Waning Gibbous
Apr 2
Last Quarter
Apr 10
New
Apr 18
First Quarter
Apr 25
Full

Hourly Weather History & Observations

Time (CDT) Temp. Windchill Dew Point Humidity Pressure Visibility Wind Dir Wind Speed Gust Speed Precip Events Conditions
12:12 AM 30.2 °F - 21.2 °F 69% 30.25 in 10.0 mi Calm Calm - N/A   Mostly Cloudy
12:32 AM 30.2 °F - 19.4 °F 64% 30.25 in 10.0 mi Calm Calm - N/A   Scattered Clouds
12:53 AM 28.4 °F - 19.4 °F 69% 30.25 in 10.0 mi Calm Calm - N/A   Clear
1:12 AM 28.4 °F 24.6 °F 19.4 °F 69% 30.25 in 10.0 mi SSW 3.5 mph - N/A   Clear
1:32 AM 26.6 °F - 17.6 °F 69% 30.25 in 10.0 mi Calm Calm - N/A   Clear
1:53 AM 26.6 °F - 17.6 °F 69% 30.25 in 10.0 mi Calm Calm - N/A   Clear
2:12 AM 26.6 °F - 17.6 °F 69% 30.25 in 10.0 mi Calm Calm - N/A   Scattered Clouds
2:32 AM 26.6 °F - 17.6 °F 69% 30.25 in 10.0 mi Calm Calm - N/A   Mostly Cloudy
2:53 AM 26.6 °F - 17.6 °F 69% 30.25 in 10.0 mi Calm Calm - N/A   Overcast
3:12 AM 26.6 °F - 19.4 °F 74% 30.24 in 10.0 mi Calm Calm - N/A   Overcast
3:32 AM 26.6 °F - 17.6 °F 69% 30.24 in 10.0 mi Calm Calm - N/A   Scattered Clouds
3:53 AM 26.6 °F - 17.6 °F 69% 30.24 in 10.0 mi Calm Calm - N/A   Mostly Cloudy
4:12 AM 26.6 °F - 19.4 °F 74% 30.24 in 10.0 mi Calm Calm - N/A   Overcast
4:53 AM 26.6 °F - 19.4 °F 74% 30.23 in 10.0 mi Calm Calm - N/A   Mostly Cloudy
5:12 AM 26.6 °F - 19.4 °F 74% 30.23 in 10.0 mi Calm Calm - N/A   Mostly Cloudy
5:33 AM 28.4 °F - 19.4 °F 69% 30.22 in 10.0 mi Calm Calm - N/A   Mostly Cloudy
5:53 AM 26.6 °F - 19.4 °F 74% 30.23 in 10.0 mi Calm Calm - N/A   Mostly Cloudy
6:12 AM 28.4 °F - 19.4 °F 69% 30.22 in 10.0 mi Calm Calm - N/A   Mostly Cloudy
6:32 AM 28.4 °F - 19.4 °F 69% 30.22 in 10.0 mi Calm Calm - N/A   Mostly Cloudy
6:52 AM 28.4 °F - 19.4 °F 69% 30.22 in 10.0 mi Calm Calm - N/A   Mostly Cloudy
7:13 AM 28.4 °F - 19.4 °F 69% 30.22 in 10.0 mi Calm Calm - N/A   Scattered Clouds
7:32 AM 28.4 °F - 19.4 °F 69% 30.22 in 10.0 mi Calm Calm - N/A   Scattered Clouds
7:52 AM 28.4 °F - 19.4 °F 69% 30.22 in 10.0 mi Calm Calm - N/A   Scattered Clouds
8:13 AM 28.4 °F - 19.4 °F 69% 30.22 in 10.0 mi Calm Calm - N/A   Clear
8:32 AM 28.4 °F - 19.4 °F 69% 30.22 in 10.0 mi Calm Calm - N/A   Clear
8:52 AM 30.2 °F 25.4 °F 21.2 °F 69% 30.21 in 10.0 mi SE 4.6 mph - N/A   Scattered Clouds
9:13 AM 35.6 °F 29.2 °F 23.0 °F 60% 30.21 in 10.0 mi SSE 8.1 mph - N/A   Scattered Clouds
9:32 AM 37.4 °F 32.1 °F 24.8 °F 60% 30.21 in 10.0 mi SSE 6.9 mph - N/A   Scattered Clouds
9:52 AM 37.4 °F 30.3 °F 24.8 °F 60% 30.20 in 10.0 mi SE 10.4 mph - N/A   Clear
10:13 AM 39.2 °F 33.0 °F 26.6 °F 61% 30.20 in 10.0 mi SE 9.2 mph - N/A   Clear
10:32 AM 39.2 °F 32.5 °F 26.6 °F 61% 30.20 in 10.0 mi South 10.4 mph - N/A   Clear
10:52 AM 41.0 °F 34.3 °F 26.6 °F 57% 30.19 in 10.0 mi SSE 11.5 mph 17.3 mph N/A   Clear
11:13 AM 41.0 °F 34.7 °F 26.6 °F 57% 30.19 in 10.0 mi SSE 10.4 mph - N/A   Clear
11:32 AM 41.0 °F 34.7 °F 26.6 °F 57% 30.19 in 10.0 mi South 10.4 mph - N/A   Clear
11:52 AM 42.8 °F 38.0 °F 26.6 °F 53% 30.18 in 10.0 mi South 8.1 mph - N/A   Clear
12:13 PM 42.8 °F 37.0 °F 26.6 °F 53% 30.18 in 10.0 mi SSE 10.4 mph - N/A   Clear
12:32 PM 42.8 °F 37.0 °F 26.6 °F 53% 30.17 in 10.0 mi South 10.4 mph - N/A   Clear
12:52 PM 44.6 °F 39.2 °F 28.4 °F 53% 30.17 in 10.0 mi South 10.4 mph - N/A   Clear
1:13 PM 44.6 °F 39.7 °F 28.4 °F 53% 30.16 in 10.0 mi South 9.2 mph - N/A   Clear
1:32 PM 44.6 °F 39.7 °F 28.4 °F 53% 30.15 in 10.0 mi South 9.2 mph - N/A   Clear
1:53 PM 44.6 °F 38.8 °F 28.4 °F 53% 30.15 in 10.0 mi South 11.5 mph - N/A   Clear
2:12 PM 44.6 °F 39.7 °F 28.4 °F 53% 30.14 in 10.0 mi SSE 9.2 mph - N/A   Clear
2:32 PM 46.4 °F 43.5 °F 28.4 °F 50% 30.14 in 10.0 mi South 5.8 mph - N/A   Clear
2:53 PM 44.6 °F 40.7 °F 28.4 °F 53% 30.13 in 10.0 mi South 6.9 mph - N/A   Clear
3:12 PM 46.4 °F 42.9 °F 28.4 °F 50% 30.12 in 10.0 mi South 6.9 mph - N/A   Scattered Clouds
3:32 PM 46.4 °F 41.5 °F 28.4 °F 50% 30.11 in 10.0 mi SSE 10.4 mph - N/A   Scattered Clouds
3:53 PM 46.4 °F 41.9 °F 28.4 °F 50% 30.11 in 10.0 mi South 9.2 mph - N/A   Scattered Clouds
4:12 PM 46.4 °F 42.4 °F 28.4 °F 50% 30.10 in 10.0 mi South 8.1 mph - N/A   Scattered Clouds
4:32 PM 46.4 °F 41.9 °F 28.4 °F 50% 30.10 in 10.0 mi South 9.2 mph - N/A   Scattered Clouds
4:53 PM 46.4 °F 41.9 °F 28.4 °F 50% 30.09 in 10.0 mi SSE 9.2 mph - N/A   Scattered Clouds
5:12 PM 46.4 °F 42.9 °F 28.4 °F 50% 30.08 in 10.0 mi South 6.9 mph - N/A   Scattered Clouds
5:32 PM 46.4 °F 42.4 °F 30.2 °F 53% 30.08 in 10.0 mi South 8.1 mph - N/A   Clear
5:53 PM 46.4 °F 42.4 °F 28.4 °F 50% 30.08 in 10.0 mi South 8.1 mph - N/A   Clear
6:12 PM 46.4 °F 41.9 °F 28.4 °F 50% 30.08 in 10.0 mi South 9.2 mph - N/A   Clear
6:32 PM 46.4 °F 42.9 °F 28.4 °F 50% 30.08 in 10.0 mi South 6.9 mph - N/A   Clear
6:53 PM 46.4 °F 43.5 °F 28.4 °F 50% 30.07 in 10.0 mi South 5.8 mph - N/A   Clear
7:12 PM 44.6 °F 40.7 °F 28.4 °F 53% 30.07 in 10.0 mi South 6.9 mph - N/A   Clear
7:32 PM 42.8 °F 40.1 °F 30.2 °F 61% 30.07 in 10.0 mi South 4.6 mph - N/A   Clear
7:53 PM 42.8 °F 38.6 °F 30.2 °F 61% 30.07 in 10.0 mi South 6.9 mph - N/A   Clear
8:12 PM 42.8 °F 39.3 °F 30.2 °F 61% 30.06 in 10.0 mi South 5.8 mph - N/A   Scattered Clouds
8:32 PM 42.8 °F 40.1 °F 30.2 °F 61% 30.05 in 10.0 mi South 4.6 mph - N/A   Scattered Clouds
8:53 PM 41.0 °F 37.1 °F 30.2 °F 65% 30.05 in 10.0 mi SE 5.8 mph - N/A   Mostly Cloudy
9:12 PM 41.0 °F 38.0 °F 30.2 °F 65% 30.05 in 10.0 mi SE 4.6 mph - N/A   Overcast
9:32 PM 39.2 °F 35.0 °F 28.4 °F 65% 30.04 in 10.0 mi SSE 5.8 mph - N/A   Overcast
9:53 PM 41.0 °F 35.8 °F 28.4 °F 61% 30.04 in 10.0 mi SSE 8.1 mph - N/A   Overcast
10:12 PM 41.0 °F 34.3 °F 28.4 °F 61% 30.03 in 10.0 mi SSE 11.5 mph 17.3 mph N/A   Mostly Cloudy
10:32 PM 41.0 °F 33.9 °F 28.4 °F 61% 30.01 in 10.0 mi SSE 12.7 mph - N/A   Scattered Clouds
10:53 PM 41.0 °F 35.2 °F 28.4 °F 61% 30.01 in 10.0 mi South 9.2 mph - N/A   Overcast
11:12 PM 39.2 °F 32.5 °F 28.4 °F 65% 30.00 in 10.0 mi South 10.4 mph - N/A   Overcast
11:32 PM 39.2 °F 33.6 °F 30.2 °F 70% 30.00 in 10.0 mi South 8.1 mph - N/A   Overcast
11:52 PM 39.2 °F 33.0 °F 30.2 °F 70% 29.99 in 10.0 mi South 9.2 mph - N/A   Overcast